SCP
0 0 1 1 1 1 1 1 1 1 1 0 0 0 0 0 0 0 0 1 1 1 1 1 1 1 1 1 0 0 0 0 0 0 1 1 1 1 1 1 1 1 1
0 0 0 0 1 1 1 1 1 1 1 0 0 0 0 0 0 0 0 0 1 1 1 1 1 1 1 1 1 0 0 0 0 1 1 1 1 1 1 1 1 1 1
0 0 0 0 0 1 1 1 1 1 1 0 0 0 0 0 0 0 0 0 1 1 1 1 1 1 1 1 1 1 1 1 1 1 1 1 1 1 1 1 1 1 1
0 0 0 0 0 0 1 1 1 1 1 0 0 0 0 0 0 0 0 1 1 1 1 1 1 1 1 1 1 1 1 1 1 1 1 1 1 1 1 1 1 1 1
0 0 0 0 0 0 0 1 1 1 1 1 0 0 0 0 0 0 0 1 1 1 1 1 1 1 1 1 1 1 1 1 1 1 1 1 1 1 1 1 1 1 1
0 0 0 0 0 0 0 0 1 1 1 1 0 0 0 0 0 0 0 0 0 1 1 1 1 1 1 1 1 1 1 1 1 1 1 1 1 1 1 1 1 1 1
0 0 0 0 0 0 0 0 1 1 1 1 0 0 0 0 0 0 0 0 0 0 1 1 1 1 1 1 1 1 1 1 1 1 1 1 1 1 1 1 1 1 1
0 0 0 0 0 0 0 0 1 1 1 1 0 0 0 0 0 0 0 0 0 0 0 1 1 1 1 1 1 1 1 1 1 1 1 1 1 1 1 1 1 1 1
0 0 0 0 0 0 0 0 0 1 1 1 0 0 0 0 0 0 0 0 0 0 0 1 1 1 1 1 1 1 1 1 1 1 1 1 1 1 1 1 1 1 1
0 0 0 0 0 0 0 0 0 0 1 1 0 0 0 0 0 0 0 0 0 0 1 1 1 1 1 1 1 1 1 1 1 1 1 1 1 1 1 1 1 1 1
0 0 0 0 0 0 0 0 0 0 0 1 1 0 0 0 0 0 0 0 0 0 1 1 1 1 1 1 1 1 1 1 1 1 1 1 1 1 1 1 1 1 1
0 0 0 0 0 0 0 0 0 0 0 0 1 0 0 0 0 0 0 0 0 0 1 1 1 1 1 1 1 1 1 1 1 1 1 1 1 1 1 1 1 1 1
0 0 0 0 0 0 0 0 0 0 0 0 1 0 0 0 0 0 0 0 0 0 0 1 1 1 1 1 1 0 0 0 1 1 1 1 1 1 1 1 1 1 1
0 0 0 0 0 0 0 0 0 0 0 0 0 0 0 0 0 0 0 0 0 0 0 0 0 1 1 1 0 0 0 0 0 1 1 1 1 1 1 1 1 1 1
0 0 0 0 0 0 0 0 0 0 0 0 0 0 0 0 0 0 0 0 0 0 0 0 0 0 1 1 0 0 0 0 0 0 1 1 1 1 1 1 1 1 1
0 0 0 0 0 0 0 0 0 0 0 0 0 0 0 0 0 0 0 0 0 0 0 0 0 0 0 0 0 0 0 0 0 0 0 0 1 1 1 1 1 1 1
0 0 0 0 0 0 0 0 0 0 0 0 0 0 0 0 0 0 0 0 0 0 0 0 0 0 0 0 0 0 1 1 0 0 0 0 0 0 1 1 1 0 0
0 0 0 0 0 0 0 0 0 0 0 0 0 0 0 0 0 0 0 0 0 0 0 0 0 0 0 0 0 1 1 1 1 0 0 0 0 0 0 0 0 0 0
0 0 0 0 0 0 0 0 0 0 0 0 0 0 0 0 0 0 0 0 0 0 0 0 0 0 0 0 0 0 1 1 1 0 0 0 0 0 0 0 0 0 0
0 0 0 0 0 0 0 0 0 0 0 0 0 0 0 0 0 0 0 0 0 0 0 0 0 0 0 0 0 0 0 1 1 0 0 0 0 0 0 0 0 0 0
0 0 0 0 0 0 0 0 0 0 0 0 0 0 0 0 0 0 0 0 0 0 0 0 0 0 0 0 0 0 0 0 0 0 0 0 0 0 0 0 0 0 0
0 0 0 0 0 0 0 0 0 0 0 0 0 0 0 0 0 0 0 0 0 0 0 0 0 0 0 0 0 0 0 0 0 0 0 1 1 1 0 0 0 0 0
0 0 0 0 0 0 0 0 0 0 0 0 0 0 0 0 0 0 0 0 0 0 0 0 0 0 0 0 0 0 0 0 0 0 0 1 1 1 0 0 0 0 0
0 0 0 0 0 0 0 0 0 0 0 0 0 0 0 0 0 0 0 0 0 0 0 0 0 0 0 0 0 0 0 0 0 0 0 1 1 0 0 0 0 0 0
0 0 0 0 0 0 0 0 0 0 0 0 0 0 0 0 0 0 0 0 0 0 0 0 0 0 0 0 0 0 0 0 0 0 0 0 0 0 0 0 0 0 0
0 0 0 0 0 0 0 0 0 0 0 0 0 0 0 0 0 0 0 0 0 0 0 0 0 0 0 0 0 0 0 0 0 0 0 0 0 0 0 0 0 0 0
Wind_Speed
2 2 2 2 3 2 3 3 3 4 4 4 3 4 4 4 4 4 3 9 11 12 13 12 12 11 11 10 10 10 10 10 10 10 11 11 11 11 10 10 11 10 10
1 2 2 2 3 2 3 3 3 3 3 3 3 3 3 3 3 4 4 6 10 11 12 13 12 12 12 11 11 11 10 10 10 11 11 11 11 11 11 10 10 10 9
2 1 1 2 2 2 2 2 2 2 2 2 3 3 2 3 3 3 4 3 4 8 11 12 13 13 12 12 12 11 11 11 11 11 12 12 12 11 11 11 10 10 9
2 2 2 2 2 1 1 1 1 1 1 2 2 2 2 2 3 3 3 3 3 4 7 10 12 12 13 13 13 12 12 11 11 12 12 12 12 12 11 10 10 9 9
3 2 2 2 2 1 1 2 1 1 2 2 2 2 2 2 3 3 3 4 4 4 4 7 10 12 12 13 13 13 13 13 12 12 12 12 12 12 11 10 10 9 9
3 2 2 2 2 1 1 1 1 1 2 2 3 2 2 2 2 3 4 4 3 5 4 5 5 8 11 12 13 14 14 14 14 13 13 13 13 12 12 11 11 10 9
3 2 2 2 1 1 1 1 1 1 1 1 0 1 2 2 2 3 3 4 4 5 4 5 4 4 5 11 12 13 15 15 14 14 14 13 13 12 12 12 11 11 10
4 3 2 2 1 1 1 1 0 0 1 1 1 1 1 2 2 2 3 4 5 4 5 6 5 5 4 4 7 12 13 14 15 15 15 14 13 12 12 12 12 11 10
4 4 3 2 2 1 1 2 1 2 1 1 1 2 2 2 1 1 2 2 3 3 4 4 5 6 6 4 5 9 11 12 14 15 15 15 14 13 13 12 12 11 11
4 4 3 2 2 2 2 2 1 1 2 1 1 1 2 2 2 1 1 1 2 4 4 5 5 5 6 5 6 9 11 12 13 15 15 15 15 15 14 13 12 12 11
5 4 3 3 2 2 2 2 2 2 2 2 2 1 1 1 1 2 1 1 1 2 3 4 4 4 5 5 5 8 12 12 13 14 15 15 15 15 15 14 13 13 12
4 4 4 3 3 2 2 2 2 2 2 2 2 2 2 2 2 2 2 2 1 1 2 3 4 4 4 5 7 10 11 12 13 13 13 14 14 15 15 14 14 13 13
3 4 4 3 2 2 2 2 2 2 2 2 3 2 2 2 2 2 2 2 1 1 1 2 3 4 5 4 5 10 11 12 12 12 12 12 12 13 14 15 14 14 14
4 4 4 3 3 3 2 1 1 2 2 2 3 2 2 2 2 2 3 2 1 1 1 2 1 3 4 4 6 10 8 13 13 13 12 12 12 12 12 13 13 13 13
4 4 4 3 3 2 2 1 1 2 1 2 2 2 2 2 2 2 3 3 4 2 2 2 2 2 3 4 6 6 6 11 13 13 12 11 11 12 12 12 11 10 10
4 5 4 4 3 3 2 1 1 1 1 2 2 2 2 2 2 2 2 3 3 3 3 2 2 2 3 3 6 5 6 10 13 12 12 12 11 11 11 11 10 10 10
4 4 4 4 4 3 2 1 1 1 1 2 2 2 2 2 2 2 2 2 2 3 3 2 1 2 3 3 4 4 4 5 6 11 12 12 12 11 11 11 11 10 10
4 4 4 4 4 3 3 2 2 2 1 2 2 2 2 2 2 2 2 2 3 3 3 3 2 2 3 4 4 5 4 4 4 9 11 12 12 12 12 11 11 10 10
4 4 4 4 4 3 3 2 2 2 2 2 2 2 2 2 2 2 2 2 2 2 2 3 2 2 2 3 4 4 4 3 4 6 9 10 10 11 11 11 11 10 10
3 4 4 4 3 3 3 2 2 2 2 2 1 1 2 2 3 3 2 2 2 2 2 2 2 2 2 3 4 4 3 3 3 3 4 6 8 9 10 11 11 11 10
4 4 4 4 4 3 2 2 2 2 2 2 2 1 1 2 3 2 2 2 2 2 2 2 2 2 2 3 4 3 3 3 2 2 3 3 4 4 5 8 11 11 11
4 4 4 4 5 4 6 4 2 1 2 2 3 2 2 1 2 2 2 3 4 4 3 3 2 3 3 3 3 3 3 3 3 3 3 3 3 4 4 4 8 11 12
3 4 4 4 5 6 7 5 3 1 2 2 2 2 2 2 2 1 2 2 2 4 6 5 4 5 5 5 5 5 5 4 3 3 3 2 2 3 3 4 9 11 12
3 3 3 4 4 6 8 6 3 2 2 2 2 2 1 2 2 1 0 1 1 2 3 4 5 5 5 5 6 5 5 3 2 1 3 3 2 2 2 3 8 10 11
3 3 3 4 4 5 7 5 3 1 2 3 3 2 2 2 3 2 0 1 1 2 2 3 4 5 6 6 6 4 5 4 2 2 2 3 2 2 1 2 4 8 9
3 3 3 3 3 4 6 5 2 1 1 2 3 3 4 3 4 2 0 1 2 2 2 1 1 1 3 4 7 6 6 5 3 3 4 4 3 3 2 1 2 3 5
Wind_Direction
277 275 272 268 262 255 247 237 230 228 230 233 229 230 231 225 223 217 219 215 207 196 191 187 183 181 180 176 173 169 167 164 163 161 157 155 153 149 145 145 145 144 142
296 298 291 286 277 262 247 234 232 230 226 224 233 231 233 224 217 213 209 209 204 197 191 190 188 186 184 179 176 173 170 170 168 165 161 158 157 155 152 150 149 147 146
323 310 306 301 289 279 270 251 241 237 236 233 239 243 230 220 211 209 201 196 197 199 194 192 192 190 188 183 181 177 175 173 171 168 165 162 160 159 158 157 154 152 150
346 345 333 304 298 302 285 251 226 235 249 245 242 246 240 222 204 200 193 193 191 198 200 196 195 194 192 188 185 182 178 176 174 172 170 166 164 163 161 160 159 159 155
339 343 321 305 313 320 299 279 232 210 231 245 244 231 225 227 204 197 192 195 195 198 200 198 198 196 195 191 188 186 183 180 178 177 174 172 169 170 168 166 165 163 160
330 329 310 313 324 330 314 304 269 235 223 231 254 253 228 232 212 194 196 197 200 203 206 201 193 199 198 194 191 189 187 184 183 182 180 178 174 173 172 172 171 169 167
322 317 312 313 318 303 284 284 266 264 249 205 114 322 300 251 227 204 196 187 198 204 200 199 190 184 196 200 195 192 190 188 186 185 184 181 178 176 175 174 175 173 172
320 315 299 292 294 299 314 296 218 263 263 172 141 105 330 327 293 220 194 191 194 193 201 203 190 185 188 188 196 194 192 191 190 189 187 185 182 181 180 178 179 180 179
320 315 305 284 275 234 245 252 215 192 230 249 186 158 169 228 281 299 223 199 190 192 201 202 193 186 188 183 185 197 191 191 192 192 191 190 186 185 184 184 185 184 183
318 315 306 294 275 250 238 241 218 195 184 220 255 215 204 190 182 291 318 250 200 200 201 205 199 192 188 182 187 189 190 191 194 195 195 193 190 189 189 190 188 188 189
315 313 305 302 294 273 254 245 232 215 193 197 200 208 224 221 193 177 239 275 250 220 206 205 195 191 189 187 189 191 191 192 195 199 199 196 193 193 193 192 193 194 195
315 316 311 305 294 279 263 250 230 225 219 216 208 195 190 197 196 182 200 215 224 242 217 208 201 196 191 191 200 195 192 192 196 199 199 197 196 196 194 195 196 198 200
313 312 314 305 296 285 274 256 233 234 225 223 219 211 206 211 197 183 182 197 210 246 235 228 208 198 194 190 198 198 198 194 196 198 198 197 195 194 196 198 199 202 203
292 300 311 309 299 294 288 272 239 243 235 232 235 219 216 222 207 191 182 170 186 253 241 237 227 202 194 190 197 194 200 198 198 199 198 196 194 194 195 197 201 204 204
307 318 323 321 312 301 289 282 257 263 256 243 242 231 222 224 219 210 198 181 174 193 237 230 224 210 190 191 193 193 197 198 198 198 196 194 193 191 194 196 198 199 200
330 336 336 334 332 323 306 287 280 278 260 258 241 239 239 228 227 215 207 205 187 178 208 222 218 205 185 193 187 188 199 195 197 197 195 193 194 193 192 193 195 195 195
340 346 342 343 347 345 338 339 305 289 269 273 264 241 246 231 221 221 209 207 200 181 205 230 216 193 181 186 179 180 187 191 196 197 196 196 194 194 193 194 194 194 193
341 347 351 352 352 353 352 354 329 325 290 275 273 257 253 237 225 222 205 212 209 192 187 212 211 194 198 191 180 180 185 189 193 197 196 197 196 196 194 193 192 192 192
342 347 354 352 347 346 346 341 333 318 302 285 270 255 254 229 226 230 217 215 214 204 187 194 211 193 192 178 171 177 178 182 197 197 197 197 197 195 194 193 192 191 190
342 342 344 341 337 337 340 337 347 334 324 316 289 255 235 212 217 218 218 218 209 196 186 189 198 184 180 175 167 174 178 185 192 186 192 191 192 194 196 194 193 193 193
343 339 344 343 339 334 331 330 328 337 336 335 333 315 274 243 231 209 202 198 190 185 182 189 190 182 180 174 184 178 179 169 182 175 169 184 181 189 198 199 196 196 195
340 345 345 341 340 336 336 338 337 357 355 351 343 332 315 315 307 293 269 214 189 186 190 190 197 194 199 192 182 177 167 164 191 184 171 188 178 194 200 201 200 197 196
331 336 333 337 332 327 335 339 345 27 5 350 340 331 333 347 349 332 308 292 235 221 207 194 198 205 198 193 180 183 184 177 184 170 153 185 182 202 204 201 195 195 196
308 313 318 324 328 335 348 354 9 34 14 352 347 336 327 327 331 342 325 333 289 267 240 218 211 216 213 199 190 187 177 149 102 133 148 174 183 195 195 195 196 196 194
298 301 305 319 326 326 342 353 19 25 3 350 346 348 335 326 327 1 64 298 301 298 285 253 226 222 214 200 180 157 160 161 171 188 175 165 170 161 179 204 200 196 193
274 298 308 308 307 311 331 347 14 51 358 337 339 341 345 333 327 333 231 227 262 275 288 314 295 252 211 193 191 188 180 177 165 188 187 167 162 151 181 215 196 196 197